Home   Weather   Bremen   Past weeks

Flag for Germany Past Weather in Bremen, Bremen, Germany — Yesterday and Last 2 Weeks

Now
61 °F

Broken clouds.


Feels Like: 61 °F
Forecast: 55 / 65 °F
Wind: 3 mph from Southwest

Location: Bremen Airport

Current Time: Aug 18, 2017 at 8:24:09 pm

Latest Report: Aug 18, 2017 at 7:50 pm


Visibility: N/A

Pressure: 29.83 "Hg

Humidity: 94%

Dew Point: 59 °F

Location of BremenLocation

Past Weather in Bremen — Graph

°F

Bremen Temperature Yesterday

Maximum temperature yesterday: 73 °F (at 12:50 pm)
Minimum temperature yesterday: 57 °F (at 2:50 am)
Average temperature yesterday: 64 °F

High & Low Weather Summary for the Past Weeks

 TemperatureHumidityPressure
High79 °F (Aug 15, 12:20 pm)100% (Aug 7, 2:20 am)30.24 "Hg (Aug 7, 2:20 am)
Low45 °F (Aug 14, 2:20 am)38% (Aug 7, 2:20 pm)29.77 "Hg (Aug 3, 7:20 pm)
Average63 °F78%30.00 "Hg
* Reported Aug 3 7:20 pm — Aug 18 7:20 pm, Bremen. Weather by CustomWeather, © 2017

Note: Actual official high and low records may vary slightly from our data, if they occured in-between our weather recording intervals... More about our weather records

Advertising

Bremen Weather History for the Previous 24 Hours

Scroll right to see more
 ConditionsComfort  
Time TempWeatherWind HumidityBarometerVisibility
7:20 pm
Fri, Aug 18
61 °FSprinkles. Broken clouds.5 mph94%29.83 "HgN/A
6:50 pm61 °FRain showers. Partly sunny.15 mph94%29.83 "Hg4 mi
6:20 pm66 °FLight rain. Partly sunny.7 mph88%29.83 "HgN/A
5:50 pm66 °FLight rain. Overcast.7 mph88%29.83 "HgN/A
5:20 pm66 °FOvercast.8 mph83%29.83 "HgN/A
4:50 pm68 °FPartly sunny.9 mph83%29.83 "HgN/A
4:20 pm68 °FLight rain. Partly sunny.8 mph78%29.83 "HgN/A
3:50 pm68 °FPartly sunny.8 mph73%29.83 "HgN/A
3:20 pm68 °FPartly sunny.9 mph73%29.83 "HgN/A
2:50 pm68 °FPartly sunny.12 mph78%29.86 "HgN/A
2:20 pm70 °FBroken clouds.9 mph73%29.86 "HgN/A
1:50 pm68 °FBroken clouds.10 mph78%29.86 "HgN/A
1:20 pm68 °FBroken clouds.9 mph78%29.86 "HgN/A
12:50 pm66 °FBroken clouds.9 mph83%29.86 "HgN/A
12:20 pm66 °FPartly sunny.8 mph83%29.86 "HgN/A
11:50 am66 °FPartly sunny.6 mph83%29.86 "HgN/A
11:20 am66 °FPartly sunny.8 mph83%29.89 "HgN/A
10:50 am66 °FBroken clouds.9 mph83%29.89 "HgN/A
10:20 am64 °FPartly sunny.9 mph88%29.89 "HgN/A
9:50 am64 °FPartly sunny.10 mph88%29.89 "HgN/A
9:20 am64 °FPartly sunny.9 mph88%29.89 "HgN/A
8:50 am64 °FPartly sunny.7 mph94%29.89 "HgN/A
8:20 am64 °FPartly sunny.7 mph88%29.89 "HgN/A
7:50 am63 °FPartly sunny.7 mph94%29.89 "Hg6 mi
7:20 am63 °FPartly sunny.7 mph94%29.92 "Hg6 mi
6:50 am61 °FScattered clouds.7 mph100%29.89 "Hg4 mi
6:20 am59 °FFog.6 mph100%29.89 "Hg4 mi
5:50 am61 °FFog.3 mph94%29.89 "Hg5 mi
5:20 am61 °FPassing clouds.7 mph94%29.92 "HgN/A
4:50 am61 °FPassing clouds.7 mph94%29.92 "HgN/A
4:20 am61 °FPassing clouds.5 mph100%29.92 "HgN/A
3:50 am61 °FPassing clouds.6 mph94%29.92 "HgN/A
3:20 am63 °FPassing clouds.5 mph94%29.92 "HgN/A
2:50 am63 °FPassing clouds.5 mph94%29.92 "HgN/A
2:20 am63 °FPartly cloudy.6 mph94%29.92 "HgN/A
1:50 am63 °FPartly cloudy.7 mph94%29.92 "HgN/A
1:20 am63 °FPartly cloudy.7 mph94%29.92 "HgN/A
12:50 am63 °FPartly cloudy.6 mph94%29.92 "HgN/A
12:20 am63 °FPartly cloudy.5 mph100%29.92 "HgN/A
11:50 pm
Thu, Aug 17
63 °FPassing clouds.3 mph94%29.92 "HgN/A
11:20 pm64 °FPassing clouds.5 mph94%29.92 "HgN/A
10:50 pm64 °FPassing clouds.6 mph94%29.95 "HgN/A
10:20 pm64 °FPassing clouds.7 mph94%29.95 "HgN/A
9:55 pm64 °FPartly cloudy.8 mph94%29.95 "HgN/A
9:20 pm64 °FPassing clouds.6 mph94%29.95 "Hg5 mi
8:50 pm64 °FPassing clouds.6 mph94%29.95 "Hg4 mi
8:20 pm64 °FBroken clouds.7 mph94%29.95 "Hg5 mi
Weather by CustomWeather, © 2017

See weather overviewHow to use our weather pages